Weather in Lgov

Russia / Kursk Oblast     51°39′24″N   35°15′33″E
В апреле 2022 года жителям России запретили посещать сайт meteo.paraplan.net по решению Генеральной прокуратуры. Аудитория сайта уменьшилась в 10 раз. Владельцы сайта не видят смысла в поддержке погодного сервера в таких условиях. Сайт будет закрыт в октябре.
temp.,
°C
wind,
m/s
gust,
m/s
humid.,
%
clouds,
%
prec.,
mm/h
press.,
hPa
HPBL,
m
29 september, thu
thu2900:00+12ssw119182 0.0 100414
03:00+12sw2591100 0.0 1006166
06:00+10wsw37950 0.0 1007169
09:00+12wnw358357 0.0 1009317
12:00+15wsw3363100 0.0 1011732
15:00+16sw3354100 0.0 1011885
18:00+14ssw1168100 0.0 101211
21:00+12se337194 0.0 101345
30 september, fri
fri3000:00+11se3880100 0.0 1013134
03:00+11se3109074 0.0 1013202
06:00+12sse41189100 0.0 1014256
09:00+13sse3994100 1.2 1014252
12:00+13ese2492100 0.4 1015116
15:00+16ese238497 0.4 1014132
18:00+16s228962 0.3 101511
21:00+14s129398 0.3 101511
1 october, sat
sat100:00+14s2294100 0.0 101624
03:00+13sw2295100 0.0 101615
06:00+13sw119497 0.0 101611
09:00+15ssw24885 0.0 1016195
12:00+19ssw5870100 0.0 1015772
15:00+20sw61067100 0.0 10141049
18:00+17ssw3678100 0.0 1013104
21:00+16sw41085100 0.7 1012318
2 october, sun
sun200:00+15sw31095100 0.5 1012474
03:00+13sw229772 0.6 101164
06:00+13wsw1297100 0.1 101145
09:00+14wnw0191100 0.2 1010218
12:00+16n0181100 0.1 1009608
15:00+14n4692100 0.6 1008290
18:00+12n4795100 1.7 1007350
21:00+12n5996100 4.3 1007443
3 october, mon
mon300:00+11nne51195100 5.9 1005578
03:00+10n71395100 11.4 1003677
06:00+9n91693100 8.9 1001803
09:00+8nnw91693100 15.3 999752
12:00+8nw91594100 10.2 999871
15:00+8wnw91488100 10.9 1000836
18:00+8wnw61290100 0.5 10021288
21:00+9w71288100 2.8 1003790